Wetbulb
30.87 30.67 30.42 30.54 30.16 29.79 29.85 30.46 31.28 30.80 30.72 30.57 30.68 30.93 30.81 30.27 29.98 30.11 29.89 29.16 29.38 29.25
30.26 29.77 29.18 29.67 30.00 29.86 30.42 30.43 30.19 30.09 29.55 29.86 29.84 30.06 29.73 29.28 28.79 29.33 29.30 29.08 29.18 28.57
28.83 29.25 29.15 29.29 28.84 29.08 29.34 29.40 28.89 28.75 28.89 28.83 29.06 29.09 28.94 28.48 28.77 28.30 28.52 28.71 28.04 27.92
28.18 28.49 28.61 28.29 28.45 28.29 28.39 28.31 27.88 27.93 27.90 27.73 27.82 28.28 27.96 27.72 27.71 26.98 27.01 27.61 27.14 26.78
27.61 27.67 27.23 26.99 27.25 27.72 27.01 27.78 27.62 27.71 27.33 27.30 27.43 27.63 27.00 26.33 26.69 25.93 25.40 25.73 25.73 25.22
26.38 26.29 25.69 25.82 26.26 26.61 26.47 26.38 26.99 26.85 26.31 26.23 26.55 26.33 26.56 26.31 25.91 25.66 25.56 25.59 25.04 24.91
24.88 24.93 25.06 25.35 25.42 25.74 26.05 25.75 25.82 25.96 25.99 26.11 26.05 26.17 26.03 25.86 25.56 25.64 25.88 26.28 26.49 26.40
23.97 24.45 24.40 24.29 24.79 25.39 25.48 25.12 25.64 25.37 25.64 25.73 25.72 25.76 25.68 26.41 26.33 26.29 26.43 27.46 28.43 29.21
22.66 22.89 23.01 23.39 23.85 24.03 24.44 24.89 25.04 24.57 24.57 24.61 25.21 28.07 29.38 29.16 27.62 28.56 27.82 26.83 27.86 28.89
21.85 21.63 22.08 22.62 22.86 22.84 23.24 24.08 23.66 23.88 24.43 23.89 24.76 28.55 29.91 30.54 28.27 28.28 27.70 27.74 28.01 28.61
21.07 20.83 21.37 21.55 21.64 21.94 22.65 22.76 23.21 23.46 23.74 24.19 25.01 28.68 29.87 30.56 28.71 28.27 28.80 29.41 29.59 29.38
19.88 19.56 20.05 19.71 19.99 21.20 22.31 22.21 22.40 23.31 24.04 23.45 24.32 28.46 30.05 30.26 28.78 28.70 28.75 29.83 30.75 30.22
19.24 19.20 18.95 18.88 20.11 21.57 22.07 21.82 23.63 23.16 23.97 25.42 24.31 28.51 30.85 30.33 29.00 27.82 29.56 29.43 30.13 31.34
18.67 18.78 19.49 20.22 20.53 21.32 22.59 22.59 22.34 22.63 23.44 24.76 26.70 27.39 30.55 31.28 28.68 28.79 28.00 27.83 27.97 28.37
MSLP
1027.38 1027.49 1027.49 1027.37 1027.29 1027.11 1026.87 1026.59 1026.38 1026.16 1025.94 1025.64 1025.35 1025.00 1024.61 1024.26 1023.87 1023.53 1023.15 1022.74 1022.35 1021.92
1027.35 1027.43 1027.47 1027.39 1027.28 1027.02 1026.73 1026.36 1026.13 1025.98 1025.70 1025.30 1024.94 1024.61 1024.31 1023.81 1023.26 1022.82 1022.47 1021.96 1021.59 1021.34
1027.34 1027.39 1027.44 1027.33 1027.09 1026.83 1026.47 1026.18 1026.01 1025.79 1025.43 1024.98 1024.59 1024.15 1023.74 1023.18 1022.76 1022.40 1022.01 1021.51 1020.99 1020.68
1027.39 1027.33 1027.23 1027.01 1026.68 1026.48 1026.33 1026.11 1025.83 1025.44 1025.04 1024.61 1024.10 1023.61 1023.23 1022.73 1022.26 1021.74 1021.24 1020.84 1020.45 1020.06
1027.42 1027.27 1027.04 1026.74 1026.44 1026.21 1026.04 1025.82 1025.53 1025.15 1024.67 1024.15 1023.57 1023.10 1022.71 1022.13 1021.63 1021.11 1020.49 1020.13 1019.82 1019.38
1027.04 1026.82 1026.68 1026.50 1026.34 1026.16 1025.89 1025.63 1025.14 1024.73 1024.26 1023.64 1023.01 1022.53 1022.19 1021.68 1021.04 1020.46 1019.85 1019.34 1018.78 1018.24
1026.83 1026.75 1026.61 1026.43 1026.19 1025.88 1025.68 1025.29 1024.82 1024.35 1023.73 1022.99 1022.42 1021.97 1021.33 1020.79 1020.15 1019.70 1019.05 1018.23 1017.45 1016.79
1026.92 1026.69 1026.66 1026.41 1026.05 1025.71 1025.35 1024.87 1024.39 1023.74 1023.14 1022.41 1021.82 1021.26 1020.66 1019.95 1019.30 1018.70 1017.62 1016.81 1016.05 1015.31
1026.99 1026.85 1026.62 1026.34 1025.95 1025.38 1024.84 1024.32 1023.76 1023.13 1022.57 1021.67 1020.88 1020.40 1019.69 1018.90 1018.29 1017.54 1016.62 1015.37 1014.49 1013.67
1027.01 1026.73 1026.44 1026.01 1025.58 1025.10 1024.46 1023.87 1023.38 1022.62 1021.90 1021.24 1020.28 1019.46 1018.67 1017.91 1017.28 1016.53 1015.43 1014.08 1012.93 1011.91
1027.00 1026.65 1026.28 1025.85 1025.39 1024.87 1024.13 1023.47 1022.85 1022.10 1021.29 1020.46 1019.39 1018.76 1017.83 1017.00 1016.03 1015.01 1014.03 1012.65 1011.45 1010.41
1027.26 1026.95 1026.37 1025.82 1025.29 1024.67 1023.90 1023.15 1022.50 1021.64 1020.58 1019.78 1018.73 1017.98 1016.85 1015.67 1014.87 1013.80 1012.51 1011.25 1010.27 1009.17
1027.39 1026.98 1026.46 1025.88 1025.01 1024.29 1023.89 1023.10 1021.89 1021.02 1020.01 1019.16 1018.10 1017.04 1015.87 1014.54 1013.74 1012.70 1011.25 1010.09 1008.95 1008.06
1027.29 1026.98 1026.31 1025.50 1024.80 1024.07 1023.12 1022.38 1021.42 1020.56 1019.32 1018.36 1017.33 1016.28 1015.15 1013.96 1012.86 1011.73 1010.43 1009.22 1007.89 1007.11
Wind_Speed
4 4 5 6 7 7 8 8 11 11 12 14 14 12 12 10 10 12 11 15 13 11
4 5 6 9 9 7 10 9 11 13 13 14 14 14 14 10 13 12 13 13 13 12
5 6 7 8 9 10 10 12 12 13 14 14 14 14 14 12 13 14 11 11 14 14
6 7 7 8 9 10 11 12 13 14 14 14 14 14 14 14 15 16 15 15 15 16
6 7 8 9 10 11 12 12 13 13 14 14 14 14 15 15 14 16 16 16 16 16
7 7 8 10 11 12 13 13 14 14 14 14 14 15 14 15 15 15 16 16 16 17
7 9 9 10 11 12 12 14 14 14 14 14 15 15 15 15 15 15 16 18 19 20
8 9 10 11 11 11 12 13 13 14 14 15 14 11 15 15 16 17 18 19 18 18
8 9 10 11 12 12 13 12 13 13 14 15 11 23 26 24 15 15 16 18 19 19
8 10 11 12 12 13 13 13 13 14 14 15 16 25 28 28 15 16 18 19 19 18
9 11 12 12 13 13 12 12 12 13 14 15 15 26 28 29 18 16 20 20 20 20
10 12 12 13 13 12 12 12 12 14 14 15 17 27 29 26 16 16 19 18 18 20
10 11 11 13 12 12 11 13 11 14 14 20 17 26 29 26 12 16 13 18 17 27
10 10 10 11 11 11 11 12 12 14 14 16 16 16 28 30 18 14 15 15 14 12
Wind_Direction
318 306 308 306 308 302 303 305 309 309 308 306 304 302 300 297 294 290 288 286 284 285
304 306 303 302 302 298 302 304 307 307 302 301 300 298 298 290 288 286 286 282 280 280
306 295 297 296 299 304 306 308 307 304 303 302 299 297 294 289 287 287 285 284 282 280
299 301 301 300 309 313 313 310 308 305 303 300 299 298 295 293 291 286 286 285 285 283
298 305 312 316 318 317 312 309 306 304 301 298 296 297 295 292 291 288 287 285 283 283
310 321 322 321 319 315 311 308 305 302 298 296 297 296 292 290 289 287 283 282 280 274
329 330 325 320 313 311 309 304 303 300 297 296 296 294 293 291 289 287 282 278 274 272
326 325 320 314 313 306 304 300 297 298 299 298 296 295 293 289 288 282 278 277 275 272
325 320 315 312 309 306 300 299 299 301 299 297 294 297 299 299 294 287 287 284 280 277
318 312 310 310 308 305 305 306 303 299 303 302 295 301 305 303 300 291 284 282 282 281
317 314 313 311 307 307 309 307 305 304 300 298 300 304 307 307 299 290 287 284 284 286
322 312 312 310 310 309 309 305 306 298 303 302 300 305 309 308 303 294 290 291 289 291
312 310 309 306 308 313 308 299 298 307 299 300 299 302 308 318 313 302 302 301 298 299
312 307 298 308 310 301 297 307 303 305 301 300 297 309 316 319 318 312 312 310 304 306